sat.trackr.live / text

‹ back to catalog

2024-203D

NORAD 61872 · 2024-203D

PAYLOAD ACTIVE UNKNOWN

§ Identity

Operator
Country
PRC
Launch date
2024-11-09
Launch site
JSC
Launch vehicle
Mass (kg)
RCS (m²)

External: N2YO · Heavens-Above · Gunter

§ Orbital elements

Epoch: 2026-09-22T23:49:56.430336Z

Period
94.21 min
Inclination
97.4168°
Eccentricity
0.0009782
Mean motion
15.28507613 rev/d
Perigee alt
473.6 km
Apogee alt
487.0 km
Semi-major
6,858.4 km
B*
2.8841e-4
RAAN
335.7112°
Arg perigee
2.5393°
Mean anomaly
357.5895°
Rev number
10,385

§ Raw data

2024-203D1 61872U 24203D   26265.99301424  .00007937  00000+0  28841-3 0  99992 61872  97.4168 335.7112 0009782   2.5393 357.5895 15.28507613103858

JSON: /api/v1/satellites/61872 · /tle

For live sub-satellite position, see the globe view (requires WebGL).

§ Visibility from observer

Set your observer location to see the next 7 days of passes ≥ 10°. The values pass through the URL so the page stays shareable.

No JS? Fill the form by hand. The geolocation button needs JavaScript.